Torna al catalogo

STARLINK-30445

AttivoComunicazioniVLEO
NORAD 57873·PAYLOAD·🇺🇸 United States

Lanciato Sep 16, 2023 da Cape Canaveral Space Force Station

Loading…

Prossimi Passaggi (prossime 24 ore)

TLE

AggiornatoSource: CelesTrak SupGP

Epoca: Sep 15, 2026, 01:32 UTC

1 57873C 23144K   26258.06437500  .00030167  00000+0  10925-2 0  2585
2 57873  43.0029 295.8080 0001624 271.7195 274.2463 15.27567364    12

Traccia STARLINK-30445 in tempo reale con AllMySat

Download on the App Store